Location: D�rnast
(49.6426°N, 11.9755°E)
Time: 20:42:19
(UTC+00:00)

CZ-2D R/B - Pass Details

Date: 24 January 2021
Orbit: 521 x 538 km, 97.4° (Epoch: 02 March)

Event Time Altitude Azimuth Distance (km) Brightness Sun altitude
Rises 17:42:40 0° 180° (S) 2,669 6.9 -17.3°
Reaches altitude 10° 17:44:49 10° 186° (S) 1,781 6.1 -17.6°
Maximum altitude 17:48:33 47° 261° (W) 712 4.3 -18.2°
Drops below altitude 10° 17:52:17 10° 336° (NNW) 1,786 6.1 -18.8°
Sets 17:54:27 0° 343° (NNW) 2,678 7.0 -19.2°
